Location: Schommer Observatory
(40.5200°N, 74.4500°W)
Time: 16:20:09
(UTC-04:00)

Hubble Space Telescope - Visible Passes

Search period start: 18 July 2018 00:00
Search period end: 28 July 2018 00:00
Orbit: 537 x 541 km, 28.5° (Epoch: 17 July)

Date Brightness Start Highest point End Pass type
(mag) Time Alt. Az. Time Alt. Az. Time Alt. Az.
18 Jul 2.9 03:56:28 13° SSE 03:56:28 13° SSE 03:57:46 10° SE visible
19 Jul 3.0 03:46:41 12° SSE 03:46:41 12° SSE 03:47:31 10° SE visible
20 Jul 3.2 03:36:58 11° SE 03:36:58 11° SE 03:37:13 10° SE visible
21 Jul 2.8 05:03:08 10° SW 05:04:50 12° S 05:06:32 10° SSE visible
22 Jul 2.9 04:53:17 10° SSW 04:54:20 11° SSW 04:55:27 10° S visible
